Retour au catalogue

CZ-6A DEB

ActifPO
NORAD 61474·DEBRIS·🇨🇳 China

Lancé Aug 6, 2024 depuis Taiyuan Satellite Launch Center

Loading…

Prochains Passages (prochaines 24 heures)

TLE

FraisSource: Space-Track

Époque: Sep 14, 2026, 16:37 UTC

1 61474U 24140AAG 26257.69241423  .00002801  00000-0  65484-3 0  9997
2 61474  88.8186 243.6249 0121963  24.4639 336.2287 14.49911361107089

Suivez CZ-6A DEB en temps réel avec AllMySat

Download on the App Store